OSTRACH Weather Reports


Display with metric or nautical units.
time (UTC)temp
F
wind
direction
speed
MPH
gust
MPH
rain 1hr
in
rain 24hr
in
rain mn
in
humidity
%
barometer
mb
20260506153210 49 219 12.0 0.0 0.00 0.00 0.25 89 1005.6
20260506150210 50 242 20.0 0.0 0.00 0.00 0.15 87 1005.3
20260506143210 53 205 19.0 0.0 0.00 0.00 0.10 86 1004.6
20260506140210 59 245 10.0 0.0 0.00 0.00 0.00 74 1003.6
20260506133211 60 245 5.0 0.0 0.00 0.00 0.00 70 1003.5
20260506130211 60 245 0.0 0.0 0.00 0.00 0.00 65 1003.4
20260506123210 61 245 2.0 0.0 0.00 0.00 0.00 65 1003.4
20260506120210 61 245 3.0 0.0 0.00 0.00 0.00 64 1003.1
20260506113217 61 245 2.0 0.0 0.00 0.00 0.00 65 1003.3
20260506110210 60 245 0.0 0.0 0.00 0.00 0.00 68 1003.6
20260506100213 58 245 0.0 0.0 0.00 0.00 0.00 69 1003.7
20260506093211 58 245 0.0 0.0 0.00 0.00 0.00 68 1004.1
20260506090211 58 245 0.0 0.0 0.00 0.00 0.00 69 1004.1
20260506083211 56 245 0.0 0.0 0.00 0.00 0.00 80 1003.9
20260506080212 54 245 0.0 0.0 0.00 0.00 0.00 83 1004.0
20260506073211 53 245 0.0 0.0 0.00 0.00 0.00 86 1004.2
20260506070212 52 245 3.0 0.0 0.00 0.00 0.00 87 1004.3
20260506060210 49 245 0.0 0.0 0.00 0.00 0.00 93 1004.1
20260506050211 44 245 0.0 0.0 0.00 0.00 0.00 93 1004.6
20260506043211 44 245 0.0 0.0 0.00 0.00 0.00 92 1004.7
20260506040211 44 245 0.0 0.0 0.00 0.00 0.00 91 1005.0
20260506033211 44 245 0.0 0.0 0.00 0.00 0.00 91 1005.2
20260506030212 45 245 0.0 0.0 0.00 0.00 0.00 91 1005.5
20260506023211 46 245 0.0 0.0 0.00 0.00 0.00 91 1005.8
20260506020212 47 245 0.0 0.0 0.00 0.00 0.00 90 1005.9
20260506013211 47 245 0.0 0.0 0.00 0.00 0.00 90 1006.1
20260506010213 48 245 0.0 0.0 0.00 0.00 0.00 90 1006.4
20260506003209 49 245 0.0 0.0 0.00 0.00 0.00 87 1006.2
20260506000211 50 245 0.0 0.0 0.00 0.00 0.00 89 1006.4
20260505233209 49 245 2.0 0.0 0.00 0.00 0.00 90 1006.7
20260505230209 49 245 0.0 0.0 0.00 0.00 0.00 88 1006.8
20260505223210 50 245 0.0 0.0 0.00 0.00 0.00 87 1007.0
20260505220209 51 245 0.0 0.0 0.00 0.00 0.02 86 1006.8
20260505213211 52 245 1.0 0.0 0.00 0.00 0.02 84 1006.8
20260505210215 53 245 7.0 0.0 0.00 0.00 0.02 82 1007.0
20260505203209 54 245 7.0 0.0 0.00 0.00 0.02 82 1006.8
20260505200210 55 245 5.0 0.0 0.00 0.00 0.02 81 1006.8
20260505193209 55 245 9.0 0.0 0.00 0.00 0.02 80 1006.6
20260505190215 56 251 9.0 0.0 0.00 0.00 0.02 82 1006.3
20260505183212 57 251 9.0 0.0 0.00 0.00 0.02 81 1005.8
20260505180211 59 251 7.0 0.0 0.00 0.00 0.01 72 1005.5
20260505173210 60 251 5.0 0.0 0.00 0.00 0.01 68 1005.3
20260505170210 62 258 11.0 0.0 0.00 0.00 0.01 61 1005.0
20260505163211 65 294 2.0 0.0 0.00 0.00 0.01 59 1004.8